Location: Unspecified
(50.7693°N, 0.0000°E)
Time: 01:44:13
(UTC+00:00)

Transit 4A - Pass Details

Date: 02 July 2019
Orbit: 866 x 978 km, 66.8° (Epoch: 14 October)

Event Time Altitude Azimuth Distance (km) Brightness Sun altitude
Rises 10:38:46 0° 304° (WNW) 3,684 10.7 57.7°
Reaches altitude 10° 10:42:13 10° 321° (NW) 2,739 10.2 58.0°
Maximum altitude 10:46:40 19° 6° (N) 2,147 9.8 58.5°
Drops below altitude 10° 10:51:05 10° 50° (NE) 2,724 10.4 58.9°
Sets 10:54:30 0° 68° (ENE) 3,657 11.1 59.2°
